Regional Weather Roundup
Issued by NWS

Home | Current Version | Previous Version | Graphics & Text | Print | Product List | Glossary On
Versions: 1 2 3 4 5 6 7 8 9 10 11 12 13 14 15 16 17 18 19 20 21 22 23 24 25 26 27 28 29 30 31 32 33 34 35 36 37 38 39 40 41 42 43 44 45 46 47 48 49 50
000
ASUS43 KOAX 031702
RWRNE

WEATHER ROUNDUP FOR NEBRASKA
NATIONAL WEATHER SERVICE OMAHA NE
1200 PM CDT FRI JUL 03 2015

NOTES: SATELLITE DATA IS BEING USED TO AUGMENT CLOUD COVER ABOVE
       12000 FEET.
       "FAIR" INDICATES FEW OR NO CLOUDS BELOW 12,000 FEET WITH NO
       SIGNIFICANT WEATHER AND/OR OBSTRUCTIONS TO VISIBILITY.

  * THESE STATIONS DO NOT REPORT WEATHER SUCH AS RAIN...SNOW OR FOG.

NEZ001>004-019>022-054>056-031800-
NEBRASKA PANHANDLE

CITY           SKY/WX    TMP DP  RH WIND       PRES   REMARKS
SCOTTSBLUFF    SUNNY     77  55  46 VRB5      30.11F
ALLIANCE       MOSUNNY   75  55  49 N5        30.11F
CHADRON        SUNNY     77  59  53 CALM      30.08F
KIMBALL          N/A    N/A N/A N/A MISG        N/A
SIDNEY         SUNNY     77  57  50 VRB5      30.14F
$$

NEZ057>060-069>072-079>082-031800-
SOUTHWEST NEBRASKA

CITY           SKY/WX    TMP DP  RH WIND       PRES   REMARKS
NORTH PLATTE   MOSUNNY   76  60  57 VRB5      30.08S
IMPERIAL       MOSUNNY   79  57  46 N5        30.09S
LEXINGTON      PTSUNNY   72  64  76 CALM      30.07F
MCCOOK         SUNNY     77  63  61 E9        30.06F
$$

NEZ005>010-023>029-035>040-094-031800-
NORTH CENTRAL NEBRASKA

CITY           SKY/WX    TMP DP  RH WIND       PRES   REMARKS
VALENTINE      MOSUNNY   76  61  59 NW6       30.06S
AINSWORTH      MOSUNNY   76  61  60 E3        30.07S
BROKEN BOW     PTSUNNY   76  62  62 N3        30.06S
O`NEILL        PTSUNNY   71  65  83 NW3       30.05F
ORD            PTSUNNY   74  61  63 NE3       30.04F
$$

NEZ041-046>049-061>064-073>077-083>087-031800-
SOUTH CENTRAL NEBRASKA

CITY           SKY/WX    TMP DP  RH WIND       PRES   REMARKS
GRAND ISLAND   CLOUDY    70  61  73 CALM      30.06F
AURORA         CLOUDY    70  64  82 NE5       30.05F
HASTINGS       CLOUDY    72  61  68 NE5       30.06S
KEARNEY *      CLOUDY    72  61  68 E3        30.07S
$$

NEZ011>018-030>034-042>045-031800-
NORTHEAST NEBRASKA

CITY           SKY/WX    TMP DP  RH WIND       PRES   REMARKS
NORFOLK        CLOUDY    69  62  78 CALM      30.04F
BLAIR          SUNNY     71  53  53 CALM      30.03F
COLUMBUS *     CLOUDY    68  57  68 CALM      30.06S
FREMONT        MOSUNNY   72  60  64 N3        30.04S
TEKAMAH        SUNNY     73  54  51 VRB5      30.02F
$$

NEZ050>053-065>068-078-088>093-031800-
SOUTHEAST NEBRASKA

CITY           SKY/WX    TMP DP  RH WIND       PRES   REMARKS
LINCOLN        PTSUNNY   74  59  59 N5        30.04R
OMAHA EPPLEY   MOSUNNY   72  55  55 N7        30.03S
FALLS CITY     SUNNY     75  56  51 NE8       30.00S
PLATTSMOUTH    SUNNY     71  51  49 N5        30.03S
$$

NEZ044-045-051>053-067-031800-
OMAHA AREA

CITY           SKY/WX    TMP DP  RH WIND       PRES   REMARKS
OMAHA EPPLEY   MOSUNNY   72  55  55 N7        30.03S
BLAIR          SUNNY     71  53  53 CALM      30.03F
FREMONT        MOSUNNY   72  60  64 N3        30.04S
MILLARD        SUNNY     72  54  52 NE3       30.03S
OFFUTT AFB     SUNNY     72  56  56 VRB6      30.02S
PLATTSMOUTH    SUNNY     71  51  49 N5        30.03S
$$



USA.gov is the U.S. government's official web portal to all federal, state and local government web resources and services.